Date String (YYYY-MM-DD hh:mm:ss) UTC,Instrument flags,Ambient pressure (hPa),Sample flow (lpm),Bypass flow (lpm),Sample temperature (°C),Ambient temperature (°C),ASC tube jacket temperature (°C),LED temperature (°C),Box temperature (°C),Sample RH (%),Span deviation,Mass concentration (μg/m³),Mass concentration (μg/m³),Mass concentration (μg/m³)
DateTimeUTC,F1_M11,P_M11,Q1_M11,Q2_M11,T1_M11,T2_M11,T3_M11,T4_M11,T5_M11,U1_M11,ZSPAN_M11,X0_M11,X2_M11,X1_M11
2022-11-09 15:00:00,,0819.1,5.01,0.00,23.6,21.9,00.0,32.4,25.5,15.6,0000.6,0014.91,0008.00,0006.52
2022-11-09 15:01:00,,0819.1,4.99,0.00,23.6,21.9,00.0,32.4,25.5,15.6,0000.5,0014.46,0008.01,0006.52
2022-11-09 15:02:00,,0819.1,4.99,0.00,23.6,21.9,00.0,32.4,25.5,15.7,0000.2,0014.29,0007.99,0006.53
2022-11-09 15:03:00,,0819.1,5.00,0.00,23.6,21.9,00.0,32.4,25.4,15.7,0000.2,0014.17,0007.98,0006.56
2022-11-09 15:04:00,,0819.2,5.01,0.00,23.6,21.9,00.0,32.4,25.5,15.7,0000.1,0014.11,0007.96,0006.58
2022-11-09 15:05:00,,0819.2,5.00,0.00,23.6,21.9,00.0,32.4,25.5,15.8,-000.1,0014.05,0007.96,0006.59
2022-11-09 15:06:00,,0819.2,5.00,0.00,23.6,21.9,00.0,32.4,25.5,15.8,0000.2,0013.98,0007.96,0006.59
2022-11-09 15:07:00,,0819.1,4.99,0.00,23.6,21.9,00.0,32.4,25.4,15.8,0000.2,0013.95,0007.98,0006.58
2022-11-09 15:08:00,,0819.1,4.99,0.00,23.6,21.9,00.0,32.3,25.4,15.8,-000.1,0013.89,0007.98,0006.57
2022-11-09 15:09:00,,0819.0,5.01,0.00,23.5,21.9,00.0,32.3,25.4,15.9,-000.1,0013.65,0007.94,0006.56
2022-11-09 15:10:00,,0819.1,5.01,0.00,23.5,21.9,00.0,32.3,25.4,16.0,0000.1,0013.43,0007.95,0006.56
2022-11-09 15:11:00,,0819.1,4.99,0.00,23.5,21.9,00.0,32.3,25.4,16.0,0000.1,0013.40,0007.94,0006.57
2022-11-09 15:12:00,,0819.1,4.99,0.00,23.5,21.9,00.0,32.3,25.4,16.1,0000.2,0014.07,0007.86,0006.56
2022-11-09 15:13:00,,0819.1,4.99,0.00,23.5,21.8,00.0,32.3,25.4,16.2,0000.4,0014.30,0007.92,0006.58
2022-11-09 15:14:00,,0819.1,5.01,0.00,23.5,21.8,00.0,32.3,25.4,16.2,0000.1,0014.24,0007.92,0006.61
2022-11-09 15:15:00,,0819.1,5.00,0.00,23.5,21.8,00.0,32.3,25.3,16.2,0000.3,0014.38,0008.00,0006.66
2022-11-09 15:16:00,,0819.1,5.00,0.00,23.5,21.8,00.0,32.3,25.3,16.2,0000.7,0014.52,0008.09,0006.73
2022-11-09 15:17:00,,0819.1,4.99,0.00,23.5,21.8,00.0,32.3,25.3,16.3,0000.5,0014.81,0008.19,0006.80
2022-11-09 15:18:00,,0819.1,4.99,0.00,23.4,21.7,00.0,32.3,25.2,16.4,0000.2,0015.78,0008.23,0006.88
2022-11-09 15:19:00,,0819.1,5.01,0.00,23.4,21.7,00.0,32.3,25.2,16.5,0000.2,0016.29,0008.32,0006.96
2022-11-09 15:20:00,,0819.1,5.01,0.00,23.4,21.7,00.0,32.3,25.2,16.5,-000.3,0016.98,0008.43,0007.06
2022-11-09 15:21:00,,0819.0,4.98,0.00,23.4,21.7,00.0,32.3,25.2,16.5,-000.3,0018.62,0008.54,0007.15
2022-11-09 15:22:00,,0819.0,5.01,0.00,23.4,21.7,00.0,32.3,25.2,16.5,-000.5,0019.08,0008.70,0007.25
2022-11-09 15:23:00,,0819.0,5.01,0.00,23.4,21.8,00.0,32.3,25.2,16.6,-000.9,0018.79,0008.91,0007.38
2022-11-09 15:24:00,,0819.0,5.00,0.00,23.3,21.8,00.0,32.2,25.2,16.6,-000.9,0018.87,0008.93,0007.48
2022-11-09 15:25:00,,0818.8,5.00,0.00,23.3,21.7,00.0,32.2,25.2,16.6,-000.6,0020.68,0009.09,0007.57
2022-11-09 15:26:00,,0818.7,5.00,0.00,23.3,21.7,00.0,32.2,25.2,16.6,-000.5,0021.42,0009.17,0007.64
2022-11-09 15:27:00,,0818.9,5.01,0.00,23.3,21.8,00.0,32.2,25.2,16.6,-000.6,0021.75,0009.22,0007.67
2022-11-09 15:28:00,,0819.0,5.00,0.00,23.4,21.8,00.0,32.2,25.2,16.6,-000.7,0021.83,0009.24,0007.68
2022-11-09 15:29:00,,0819.0,5.00,0.00,23.4,21.8,00.0,32.2,25.2,16.7,-000.3,0020.99,0009.27,0007.69
2022-11-09 15:30:00,,0819.0,4.99,0.00,23.3,21.8,00.0,32.2,25.2,16.9,-000.3,0020.57,0009.27,0007.70
2022-11-09 15:31:00,,0818.9,4.99,0.00,23.4,21.8,00.0,32.2,25.2,16.9,-000.3,0020.32,0009.26,0007.69
2022-11-09 15:32:00,,0818.8,5.00,0.00,23.3,21.8,00.0,32.2,25.2,16.9,-000.6,0018.66,0009.20,0007.68
2022-11-09 15:33:00,,0818.7,5.00,0.00,23.4,21.8,00.0,32.2,25.2,17.0,-000.4,0017.99,0009.10,0007.65
2022-11-09 15:34:00,,0818.8,5.01,0.00,23.4,21.8,00.0,32.1,25.2,17.0,-000.3,0017.88,0008.98,0007.60
2022-11-09 15:35:00,,0818.9,5.00,0.00,23.4,21.8,00.0,32.1,25.2,17.0,-000.3,0018.38,0008.97,0007.53
2022-11-09 15:36:00,,0818.9,4.98,0.00,23.4,21.8,00.0,32.1,25.2,17.1,-000.2,0017.32,0008.88,0007.47
2022-11-09 15:37:00,,0819.0,5.01,0.00,23.4,21.8,00.0,32.1,25.2,17.2,-000.5,0016.56,0008.76,0007.42
2022-11-09 15:38:00,,0819.0,5.01,0.00,23.4,21.8,00.0,32.1,25.2,17.3,-000.9,0016.20,0008.69,0007.40
2022-11-09 15:39:00,,0818.9,4.99,0.00,23.4,21.8,00.0,32.1,25.2,17.3,-000.8,0015.93,0008.66,0007.38
2022-11-09 15:40:00,,0818.8,5.00,0.00,23.3,21.8,00.0,32.1,25.2,17.4,-001.2,0016.47,0008.69,0007.36
2022-11-09 15:41:00,,0818.7,5.01,0.00,23.3,21.8,00.0,32.1,25.2,17.4,-001.4,0016.26,0008.64,0007.34
2022-11-09 15:42:00,,0818.8,4.98,0.00,23.4,21.8,00.0,32.1,25.2,17.4,-001.2,0015.91,0008.64,0007.35
2022-11-09 15:43:00,,0818.8,5.02,0.00,23.3,21.8,00.0,32.1,25.2,17.4,-001.2,0016.02,0008.66,0007.33
2022-11-09 15:44:00,,0818.9,5.00,0.00,23.3,21.8,00.0,32.1,25.2,17.5,-001.5,0016.23,0008.77,0007.35
2022-11-09 15:45:00,,0818.8,5.00,0.00,23.3,21.8,00.0,32.1,25.2,17.6,-001.6,0016.09,0008.82,0007.37
2022-11-09 15:46:00,,0818.7,5.00,0.00,23.3,21.8,00.0,32.1,25.2,17.6,-001.4,0015.36,0008.85,0007.39
2022-11-09 15:47:00,,0818.7,5.00,0.00,23.3,21.8,00.0,32.1,25.2,17.6,-001.7,0014.64,0008.83,0007.39
2022-11-09 15:48:00,,0818.7,5.00,0.00,23.3,21.8,00.0,32.1,25.2,17.6,-001.6,0014.51,0008.86,0007.41
2022-11-09 15:49:00,,0818.8,5.00,0.00,23.4,21.8,00.0,32.1,25.3,17.7,-001.4,0014.67,0008.92,0007.43
2022-11-09 15:50:00,,0818.8,4.99,0.00,23.3,21.9,00.0,32.1,25.2,17.7,-001.3,0014.97,0008.97,0007.47
2022-11-09 15:51:00,,0818.7,5.00,0.00,23.3,21.9,00.0,32.1,25.2,17.8,-000.9,0014.47,0008.94,0007.50
2022-11-09 15:52:00,,0818.6,5.00,0.00,23.3,21.9,00.0,32.1,25.2,18.0,-000.8,0015.16,0008.93,0007.53
2022-11-09 15:53:00,,0818.5,5.00,0.00,23.4,21.9,00.0,32.1,25.2,18.0,-001.0,0015.38,0008.92,0007.56
2022-11-09 15:54:00,,0818.4,5.01,0.00,23.3,21.9,00.0,32.1,25.2,18.1,-000.9,0015.53,0008.95,0007.59
2022-11-09 15:55:00,,0818.4,5.00,0.00,23.3,21.9,00.0,32.1,25.2,18.1,-001.0,0015.43,0008.92,0007.62
2022-11-09 15:56:00,,0818.4,4.99,0.00,23.4,21.9,00.0,32.1,25.3,18.1,-001.0,0015.38,0008.93,0007.64
2022-11-09 15:57:00,,0818.4,4.99,0.00,23.4,21.9,00.0,32.1,25.2,18.1,-001.0,0015.25,0008.94,0007.64
2022-11-09 15:58:00,,0818.5,5.00,0.00,23.3,21.9,00.0,32.1,25.2,18.2,-001.0,0015.39,0009.00,0007.66
2022-11-09 15:59:00,,0818.7,5.01,0.00,23.3,21.9,00.0,32.1,25.2,18.3,-000.9,0016.20,0009.14,0007.67
